Regional Weather Roundup
Issued by NWS

Home | Current Version | Previous Version | Text Only | Print | Product List | Glossary Off
Versions: 1 2 3 4 5 6 7 8 9 10 11 12 13 14 15 16 17 18 19 20 21 22 23 24 25 26 27 28 29 30 31 32 33 34 35 36 37 38 39 40 41 42 43 44 45 46 47 48 49 50

000
ASUS43 KMKX 240011
RWRWI

WISCONSIN REGIONAL WEATHER ROUNDUP
NATIONAL WEATHER SERVICE MILWAUKEE/SULLIVAN WI
700 PM CDT TUE MAY 23 2017

NOTE: "FAIR" INDICATES FEW OR NO CLOUDS BELOW 12,000 FEET WITH NO
SIGNIFICANT WEATHER AND/OR OBSTRUCTIONS TO VISIBILITY.

WIZ001-002-006>008-014>016-023>028-240100-
NORTHWEST WISCONSIN

CITY           SKY/WX    TMP DP  RH WIND       PRES   REMARKS
SUPERIOR ARPT  NOT AVBL
ASHLAND        CLOUDY    47  44  90 NE8       29.89S
6HR MIN TEMP:  46; 6HR MAX TEMP:  55;

HAYWARD        MOSUNNY   52  44  74 NE15      29.85R
6HR MIN TEMP:  52; 6HR MAX TEMP:  61;

SIREN          CLOUDY    56  42  60 NE9       29.84S
6HR MIN TEMP:  56; 6HR MAX TEMP:  60;

CUMBERLAND     CLOUDY    54  45  71 N13       29.81S
RICE LAKE      CLOUDY    56  45  66 NE15G22   29.82R
6HR MIN TEMP:  54; 6HR MAX TEMP:  58;

CHETEK         CLOUDY    56  47  73 NE6       29.80R
6HR MIN TEMP:  54; 6HR MAX TEMP:  56;

LADYSMITH      CLOUDY    54  46  76 N12G20    29.81S
6HR MIN TEMP:  54; 6HR MAX TEMP:  58;

EAU CLAIRE     CLOUDY    58  44  60 NE8G17    29.76S
6HR MIN TEMP:  53; 6HR MAX TEMP:  59;

MENOMONIE      CLOUDY    58  48  68 N10       29.78S
6HR MIN TEMP:  54; 6HR MAX TEMP:  58; 6HR PCP:  0.03;

NEW RICHMOND   CLOUDY    57  46  68 N15G23    29.80S
6HR MIN TEMP:  53; 6HR MAX TEMP:  59; 6HR PCP:  0.01;

OSCEOLA        CLOUDY    58  45  61 NE16      29.83S
6HR MIN TEMP:  58; 6HR MAX TEMP:  62;

$$

WIZ003>005-009-010-017-018-240100-
NORTH CENTRAL WISCONSIN

CITY           SKY/WX    TMP DP  RH WIND       PRES   REMARKS
MANITOWISH WTR CLOUDY    51  45  78 N14       29.82S
6HR MIN TEMP:  51; 6HR MAX TEMP:  56;

ARBOR VITAE    CLOUDY    53  45  73 N6        29.80S
6HR MIN TEMP:  52; 6HR MAX TEMP:  57;

WOODRUFF       CLOUDY    53  45  73 N6        29.80S
6HR MIN TEMP:  52; 6HR MAX TEMP:  57;

RHINELANDER    CLOUDY    57  45  64 NE7       29.79S
6HR MIN TEMP:  55; 6HR MAX TEMP:  60;

EAGLE RIVER    CLOUDY    53  42  67 N9        29.81R
6HR MIN TEMP:  53; 6HR MAX TEMP:  58;

LAND O LAKES   CLOUDY    52  44  74 N6        29.83S
6HR MIN TEMP:  52; 6HR MAX TEMP:  57;

PHILLIPS       LGT RAIN  51  46  82 N9        29.80S
6HR MIN TEMP:  51; 6HR MAX TEMP:  56;

TOMAHAWK       CLOUDY    55  45  69 N5        29.79S
6HR MIN TEMP:  53; 6HR MAX TEMP:  59;

MEDFORD        CLOUDY    54  45  71 NE10      29.76S
6HR MIN TEMP:  54; 6HR MAX TEMP:  57;

MERRILL        CLOUDY    56  46  67 E5        29.78S
6HR MIN TEMP:  55; 6HR MAX TEMP:  59;

$$

WIZ029-030-035-036-043>047-240100-
CENTRAL WISCONSIN

CITY           SKY/WX    TMP DP  RH WIND       PRES   REMARKS
WAUSAU         PTSUNNY   56  43  61 NE10      29.75S
6HR MIN TEMP:  55; 6HR MAX TEMP:  58;

MOSINEE        PTSUNNY   54  46  76 E8        29.77S
MARSHFIELD     CLOUDY    56  44  64 E9        29.74S
6HR MIN TEMP:  53; 6HR MAX TEMP:  59; 6HR PCP: TRACE;

STEVENS POINT  CLOUDY    52  43  72 NE15      29.76S
6HR MIN TEMP:  52; 6HR MAX TEMP:  58;

WAUPACA        DRIZZLE   53  47  80 NE8       29.78R
6HR MIN TEMP:  53; 6HR MAX TEMP:  58; 6HR PCP:  0.01;

WAUTOMA        RAIN      51  49  92 E13       29.75R
6HR MIN TEMP:  51; 6HR MAX TEMP:  60; 6HR PCP:  0.11;

WISC RAPIDS    CLOUDY    54  46  74 E9        29.76R
6HR MIN TEMP:  54; 6HR MAX TEMP:  61; 6HR PCP: TRACE;

CAMP DOUGLAS   LGT RAIN  52  52 100 NE5       29.74S FOG
                                      6HR PCP:  0.49;

$$

WIZ011>013-019>022-031-037>040-048>050-240100-
NORTHEAST WISCONSIN

CITY           SKY/WX    TMP DP  RH WIND       PRES   REMARKS
ANTIGO         CLOUDY    52  45  76 E7        29.78S
6HR MIN TEMP:  51; 6HR MAX TEMP:  55; 6HR PCP:  0.01;

SHAWANO        DRIZZLE   54  47  79 NE8       29.78S
OCONTO         CLOUDY    49  47  93 N3        29.78F
6HR MIN TEMP:  49; 6HR MAX TEMP:  53; 6HR PCP:  0.06;

STURGEON BAY   CLOUDY    51  47  86 NW7       29.78S
6HR MIN TEMP:  51; 6HR MAX TEMP:  54;

GREEN BAY      LGT RAIN  51  50  96 NE8       29.78R
6HR MIN TEMP:  51; 6HR MAX TEMP:  55; 6HR PCP:  0.23;

MANITOWOC      LGT RAIN  49  46  90 N6        29.77S
6HR MIN TEMP:  48; 6HR MAX TEMP:  51; 6HR PCP:  0.58;

APPLETON       LGT RAIN  50  48  93 NE12      29.75R
CLINTONVILLE   LGT RAIN  50  46  87 NE3       29.78R
OSHKOSH        RAIN      51  48  89 NE10      29.75R FOG
6HR MIN TEMP:  51; 6HR MAX TEMP:  58; 6HR PCP:  0.09;

$$

WIZ032>034-041-042-053>061-240100-
SOUTHWEST WISCONSIN

CITY           SKY/WX    TMP DP  RH WIND       PRES   REMARKS
LA CROSSE      LGT RAIN  56  52  86 N7        29.73S FOG
6HR MIN TEMP:  56; 6HR MAX TEMP:  61; 6HR PCP:  0.08;

SPARTA         LGT RAIN  52  51  98 NE8       29.73F
6HR MIN TEMP:  52; 6HR MAX TEMP:  59; 6HR PCP:  0.36;

VIROQUA        CLOUDY    55  53  94 MISG      29.71S
6HR MIN TEMP:  54; 6HR MAX TEMP:  55; 6HR PCP:  0.07;

BOSCOBEL       CLOUDY    61  50  67 N3        29.70S
6HR MIN TEMP:  61; 6HR MAX TEMP:  65;

PRAIRIE DU CHI CLOUDY    58  50  74 NW8       29.70S
6HR MIN TEMP:  58; 6HR MAX TEMP:  63;

PLATTEVILLE    CLOUDY    58  53  82 W13G18    29.70S
6HR MIN TEMP:  58; 6HR MAX TEMP:  62;

$$

WIZ056-057-062-063-064-067-068-240100-
SOUTH CENTRAL WISCONSIN

CITY           SKY/WX    TMP DP  RH WIND       PRES   REMARKS
REEDSBURG      CLOUDY    53  52  98 N8        29.72S
6HR MIN TEMP:  53; 6HR MAX TEMP:  63;

BARABOO/DELLS  CLOUDY    54  51  90 CALM      29.72R
6HR MIN TEMP:  54; 6HR MAX TEMP:  63;

LONE ROCK      PTSUNNY   58  51  78 N8        29.69F
6HR MIN TEMP:  57; 6HR MAX TEMP:  63;

MINERAL POINT  MOSUNNY   59  54  82 NW8       29.70R
MADISON        LGT RAIN  57  55  93 S6        29.68F
6HR MIN TEMP:  56; 6HR MAX TEMP:  64; 6HR PCP:  0.08;

MIDDLETON      CLOUDY    59  53  79 CALM      29.70R
6HR MIN TEMP:  58; 6HR MAX TEMP:  64; 6HR PCP:  0.02;

WATERTOWN      LGT RAIN  54  54 100 NE6       29.71S
6HR MIN TEMP:  54; 6HR MAX TEMP:  66; 6HR PCP:  0.27;

MONROE         CLOUDY    57  54  88 E5        29.69S
JANESVILLE     CLOUDY    55  55 100 CALM      29.69F
$$

WIZ051-052-058>065-066-070>072-240100-
SOUTHEAST WISCONSIN

CITY           SKY/WX    TMP DP  RH WIND       PRES   REMARKS
MILWAUKEE      LGT RAIN  57  55  93 NW13      29.71F FOG
6HR MIN TEMP:  57; 6HR MAX TEMP:  66; 6HR PCP:  0.06;

WAUKESHA       LGT RAIN  54  54 100 CALM      29.73S
MILWAUKEE/TIMM RAIN      52  48  87 N12       29.73S
RACINE         LGT RAIN  55  51  86 S7        29.73S
6HR MIN TEMP:  55; 6HR MAX TEMP:  65; 6HR PCP:  0.01;

KENOSHA        LGT RAIN  57  53  86 SE7       29.72S
6HR MIN TEMP:  57; 6HR MAX TEMP:  64; 6HR PCP:  0.02;

FOND DU LAC    HVY RAIN  51  48  89 NE8       29.75R FOG
6HR MIN TEMP:  51; 6HR MAX TEMP:  61; 6HR PCP:  0.61;

SHEBOYGAN      CLOUDY    47  47 100 NE10      29.75R FOG
6HR MIN TEMP:  47; 6HR MAX TEMP:  51; 6HR PCP:  0.71;

WEST BEND      RAIN      50  50 100 NW5       29.75R
JUNEAU         RAIN      53  52  97 NE5       29.73F
6HR MIN TEMP:  53; 6HR MAX TEMP:  64; 6HR PCP:  0.66;

$$

LSZ147-162-240100-
LAKE SUPERIOR

STATION/POSITION TIME  TEMP    WIND        PRES    WAVE
                       AIR SEA DIR/SP/G            HT/PER
                 (UTC) (F)     (DEG/KT/KT) (MB)    (FT/S)
W MID LAKE BUOY  2250   41 37   70/  4/  6 1012.7R   0
DEVILS ISLAND    2300   42     360/  6/  6 1013.1R
PORT WING        2330   42      20/ 12/ 14 1012.5R
SAXON HARBOR     2330   42      10/  2/  3 1011.9S
$$

LMZ867-665-643>646-240100-
LAKE MICHIGAN

STATION/POSITION TIME  TEMP    WIND        PRES    WAVE
                       AIR SEA DIR/SP/G            HT/PER
                 (UTC) (F)     (DEG/KT/KT) (MB)    (FT/S)
CHAMBERS ISLAND  2340   49     350/  2/  2 1008.1S
N MID LAKE BUOY  2350   45 39   30/  8/  8 1009.1R   0
NORTHPORT PIER   2340



USA.gov is the U.S. government's official web portal to all federal, state and local government web resources and services.